Change the Weather History Date:

Wednesday, April 3, 2013

  Actual Average (KLAW) Record (KLAW)
Temperature  
Mean Temperature 40 °F -  
Max Temperature 42 °F 72 °F 99 °F (2011)
Min Temperature 37 °F 47 °F 24 °F (1975)
Degree Days  
Heating Degree Days 26    
Moisture  
Dew Point 41 °F    
Average Humidity 100    
Maximum Humidity 100    
Minimum Humidity 93    
Precipitation  
Precipitation 0.59 in - - ()
Sea Level Pressure  
Sea Level Pressure 30.14 in    
Wind  
Wind Speed 10 mph (NE)    
Max Wind Speed 14 mph    
Max Gust Speed 24 mph    
Visibility 10 miles    
Events Rain    
Averages and records for this station are not official NWS values.
T = Trace of Precipitation, MM = Missing Value Source: NWS Daily Summary

Daily Weather History Graph

Daily Weather History Graph

Search for Another Location

Airport or City:

Trip Planner

Search our weather history database for the weather conditions in past years. The results will help you decide how hot, cold, wet, or windy it might be!

Date:

Astronomy

Apr. 03, 2013 Rise Set
Actual Time 7:15 AM CDT 7:54 PM CDT
Civil Twilight 6:50 AM CDT 8:20 PM CDT
Nautical Twilight 6:20 AM CDT 8:50 PM CDT
Astronomical Twilight 5:50 AM CDT 9:20 PM CDT
Moon 2:41 AM CDT 1:23 PM CDT
Length of Visible Light 13h 29m
Length of Day
12h 38m
Last Quarter, 44% of the Moon is Illuminated
Apr 3
Last Quarter
Apr 10
New
Apr 18
First Quarter
Apr 25
Full
May 2
Last Quarter

Hourly Weather History & Observations

Time (CDT) Temp. Windchill Dew Point Humidity Pressure Visibility Wind Dir Wind Speed Gust Speed Precip Events Conditions
12:15 AM 41.0 °F 35.2 °F 41.0 °F 100% 30.09 in 10.0 mi NE 9.2 mph - N/A   Overcast
12:35 AM 41.0 °F 33.5 °F 41.0 °F 100% 30.07 in 10.0 mi NE 13.8 mph - 0.02 in Rain Light Rain
12:55 AM 41.0 °F 33.5 °F 41.0 °F 100% 30.04 in 10.0 mi ENE 13.8 mph 24.2 mph 0.05 in Rain Light Rain
1:15 AM 41.0 °F 34.7 °F 41.0 °F 100% 30.05 in 10.0 mi NE 10.4 mph 20.7 mph 0.03 in   Overcast
1:35 AM 41.0 °F 34.3 °F 41.0 °F 100% 30.07 in 10.0 mi NE 11.5 mph 17.3 mph 0.03 in   Overcast
1:55 AM 42.8 °F 37.0 °F 42.8 °F 100% 30.07 in 10.0 mi NE 10.4 mph - 0.03 in   Overcast
2:15 AM 42.8 °F 36.2 °F 42.8 °F 100% 30.08 in 10.0 mi NE 12.7 mph 16.1 mph 0.01 in Rain Light Rain
2:35 AM 42.8 °F 36.6 °F 42.8 °F 100% 30.08 in 10.0 mi NE 11.5 mph 16.1 mph 0.02 in Rain Light Rain
2:55 AM 42.8 °F 38.0 °F 42.8 °F 100% 30.09 in 10.0 mi NNE 8.1 mph - 0.09 in Rain Light Rain
3:15 AM 42.8 °F 37.5 °F 42.8 °F 100% 30.10 in 10.0 mi North 9.2 mph - 0.02 in Rain Light Rain
3:35 AM 42.8 °F 37.5 °F 42.8 °F 100% 30.09 in 10.0 mi NE 9.2 mph - 0.02 in   Overcast
3:55 AM 42.8 °F 38.0 °F 42.8 °F 100% 30.09 in 10.0 mi NNE 8.1 mph - 0.05 in Rain Light Rain
4:15 AM 42.8 °F 37.5 °F 42.8 °F 100% 30.09 in 10.0 mi North 9.2 mph - 0.01 in Rain Light Rain
4:35 AM 42.8 °F 37.5 °F 42.8 °F 100% 30.09 in 10.0 mi NNE 9.2 mph - 0.02 in   Overcast
4:55 AM 42.8 °F 36.6 °F 42.8 °F 100% 30.08 in 10.0 mi NNE 11.5 mph - 0.03 in   Overcast
5:15 AM 42.8 °F 37.0 °F 42.8 °F 100% 30.07 in 10.0 mi NNE 10.4 mph 17.3 mph N/A   Overcast
5:35 AM 42.8 °F 37.5 °F 42.8 °F 100% 30.08 in 10.0 mi NNE 9.2 mph - N/A   Overcast
5:55 AM 42.8 °F 37.0 °F 42.8 °F 100% 30.09 in 10.0 mi NE 10.4 mph - N/A   Overcast
6:15 AM 42.8 °F 37.5 °F 42.8 °F 100% 30.10 in 10.0 mi NE 9.2 mph - N/A   Overcast
6:55 AM 42.8 °F 37.0 °F 42.8 °F 100% 30.11 in 10.0 mi NNE 10.4 mph - N/A   Overcast
7:15 AM 42.8 °F 38.6 °F 42.8 °F 100% 30.10 in 10.0 mi NE 6.9 mph - N/A Rain Light Rain
7:35 AM 42.8 °F 38.6 °F 42.8 °F 100% 30.11 in 10.0 mi NE 6.9 mph - 0.02 in   Overcast
7:55 AM 42.8 °F 38.0 °F 42.8 °F 100% 30.12 in 10.0 mi NE 8.1 mph - 0.02 in   Overcast
8:15 AM 42.8 °F 38.0 °F 42.8 °F 100% 30.12 in 10.0 mi NE 8.1 mph - N/A   Overcast
8:35 AM 42.8 °F 38.0 °F 42.8 °F 100% 30.13 in 10.0 mi ENE 8.1 mph - N/A   Overcast
8:55 AM 42.8 °F 39.3 °F 42.8 °F 100% 30.15 in 10.0 mi NE 5.8 mph - N/A   Overcast
9:15 AM 42.8 °F 38.6 °F 42.8 °F 100% 30.15 in 10.0 mi NE 6.9 mph - N/A   Overcast
9:35 AM 42.8 °F 38.0 °F 42.8 °F 100% 30.16 in 10.0 mi ENE 8.1 mph - N/A   Overcast
9:55 AM 42.8 °F 37.0 °F 42.8 °F 100% 30.16 in 10.0 mi NNE 10.4 mph - 0.01 in   Overcast
10:15 AM 41.0 °F 35.8 °F 41.0 °F 100% 30.16 in 10.0 mi NE 8.1 mph - 0.01 in   Overcast
10:35 AM 41.0 °F 34.3 °F 41.0 °F 100% 30.17 in 10.0 mi NE 11.5 mph 17.3 mph 0.02 in   Overcast
10:55 AM 41.0 °F 35.2 °F 41.0 °F 100% 30.16 in 10.0 mi ENE 9.2 mph 18.4 mph 0.02 in   Overcast
11:15 AM 41.0 °F 34.3 °F 41.0 °F 100% 30.16 in 7.0 mi ENE 11.5 mph 17.3 mph N/A   Overcast
11:35 AM 41.0 °F 35.2 °F 41.0 °F 100% 30.16 in 10.0 mi ENE 9.2 mph 17.3 mph N/A   Overcast
11:55 AM 41.0 °F 33.9 °F 41.0 °F 100% 30.16 in 10.0 mi ENE 12.7 mph 17.3 mph N/A   Overcast
12:15 PM 41.0 °F 35.2 °F 41.0 °F 100% 30.16 in 10.0 mi ENE 9.2 mph - N/A   Overcast
12:35 PM 41.0 °F 34.7 °F 41.0 °F 100% 30.16 in 10.0 mi ENE 10.4 mph - N/A   Overcast
12:55 PM 41.0 °F 35.8 °F 41.0 °F 100% 30.16 in 10.0 mi ENE 8.1 mph - N/A   Overcast
1:15 PM 41.0 °F 34.7 °F 41.0 °F 100% 30.15 in 7.0 mi NE 10.4 mph - N/A   Overcast
1:35 PM 41.0 °F 34.7 °F 41.0 °F 100% 30.15 in 10.0 mi ENE 10.4 mph - N/A   Overcast
1:55 PM 39.2 °F 31.6 °F 39.2 °F 100% 30.14 in 10.0 mi ENE 12.7 mph - N/A   Overcast
2:15 PM 39.2 °F 31.6 °F 39.2 °F 100% 30.14 in 10.0 mi NE 12.7 mph 16.1 mph N/A   Overcast
2:35 PM 39.2 °F 33.6 °F 39.2 °F 100% 30.15 in 10.0 mi NE 8.1 mph - 0.01 in   Overcast
2:55 PM 39.2 °F 33.0 °F 39.2 °F 100% 30.15 in 10.0 mi NE 9.2 mph - 0.01 in   Overcast
3:15 PM 39.2 °F 31.6 °F 39.2 °F 100% 30.15 in 10.0 mi NE 12.7 mph 17.3 mph N/A   Overcast
3:35 PM 39.2 °F 32.0 °F 39.2 °F 100% 30.15 in 10.0 mi ENE 11.5 mph 16.1 mph N/A   Overcast
3:55 PM 39.2 °F 33.6 °F 39.2 °F 100% 30.16 in 7.0 mi ENE 8.1 mph - N/A   Overcast
4:15 PM 39.2 °F 32.5 °F 39.2 °F 100% 30.16 in 7.0 mi ENE 10.4 mph - 0.01 in   Overcast
4:35 PM 39.2 °F 33.0 °F 39.2 °F 100% 30.16 in 10.0 mi NNE 9.2 mph - 0.02 in   Overcast
4:55 PM 39.2 °F 32.5 °F 39.2 °F 100% 30.15 in 10.0 mi NE 10.4 mph - 0.03 in   Overcast
5:15 PM 39.2 °F 32.5 °F 39.2 °F 100% 30.15 in 10.0 mi NE 10.4 mph 17.3 mph N/A   Overcast
5:35 PM 39.2 °F 35.0 °F 39.2 °F 100% 30.17 in 10.0 mi NE 5.8 mph - 0.01 in   Overcast
5:55 PM 39.2 °F 32.0 °F 39.2 °F 100% 30.15 in 10.0 mi ENE 11.5 mph - 0.09 in Rain Light Rain
6:15 PM 37.4 °F 32.1 °F 37.4 °F 100% 30.16 in 10.0 mi NE 6.9 mph - 0.09 in Rain Light Rain
6:35 PM 39.2 °F 32.5 °F 39.2 °F 100% 30.14 in 10.0 mi NE 10.4 mph - 0.14 in Rain Light Rain
6:55 PM 39.2 °F 32.5 °F 39.2 °F 100% 30.15 in 10.0 mi NE 10.4 mph - 0.15 in   Overcast
7:15 PM 39.2 °F 33.0 °F 39.2 °F 100% 30.16 in 10.0 mi NE 9.2 mph - N/A   Overcast
7:35 PM 39.2 °F 33.6 °F 39.2 °F 100% 30.16 in 10.0 mi NNE 8.1 mph - N/A   Overcast
7:55 PM 39.2 °F 33.6 °F 39.2 °F 100% 30.15 in 10.0 mi NE 8.1 mph - N/A   Overcast
8:15 PM 37.4 °F 32.8 °F 37.4 °F 100% 30.15 in 10.0 mi NE 5.8 mph - N/A   Overcast
8:35 PM 37.4 °F 30.8 °F 37.4 °F 100% 30.14 in 10.0 mi ENE 9.2 mph - N/A   Overcast
8:55 PM 37.4 °F 31.4 °F 37.4 °F 100% 30.15 in 10.0 mi ENE 8.1 mph - 0.01 in   Overcast
9:15 PM 37.4 °F 32.1 °F 37.4 °F 100% 30.16 in 10.0 mi East 6.9 mph - N/A   Overcast
9:35 PM 37.4 °F 32.8 °F 37.4 °F 100% 30.17 in 10.0 mi NE 5.8 mph - N/A   Overcast
9:55 PM 37.4 °F 33.8 °F 37.4 °F 100% 30.18 in 10.0 mi NNE 4.6 mph - N/A   Overcast
10:15 PM 39.2 °F 34.2 °F 37.4 °F 93% 30.19 in 10.0 mi NNW 6.9 mph - N/A   Overcast
10:35 PM 39.2 °F 35.0 °F 39.2 °F 100% 30.21 in 10.0 mi NNW 5.8 mph - N/A   Overcast
10:55 PM 39.2 °F 34.2 °F 39.2 °F 100% 30.21 in 10.0 mi North 6.9 mph - N/A   Overcast
11:15 PM 39.2 °F 35.0 °F 37.4 °F 93% 30.21 in 10.0 mi NNW 5.8 mph - N/A   Overcast
11:35 PM 39.2 °F 34.2 °F 37.4 °F 93% 30.21 in 10.0 mi NNW 6.9 mph - N/A   Overcast
11:55 PM 39.2 °F 33.6 °F 37.4 °F 93% 30.20 in 10.0 mi NNW 8.1 mph - N/A   Overcast